Location: Boston
(42.3580°N, 71.0600°W)
Time: 08:16:00
(UTC-04:00)

YUBILEINY - Visible Passes

Search period start: 23 March 2019 00:00
Search period end: 02 April 2019 00:00
Orbit: 1479 x 1508 km, 82.5° (Epoch: 22 March)

Date Brightness Start Highest point End Pass type
(mag) Time Alt. Az. Time Alt. Az. Time Alt. Az.
23 Mar ? 00:03:54 11° ENE 00:03:54 11° ENE 00:04:39 10° ENE visible
23 Mar ? 01:59:48 50° NE 01:59:48 50° NE 02:06:15 10° NNE visible
23 Mar ? 03:55:42 29° WNW 03:55:42 29° WNW 04:02:28 10° N visible
24 Mar ? 01:10:37 32° ENE 01:10:37 32° ENE 01:16:09 10° NNE visible
24 Mar ? 03:06:31 47° NW 03:06:31 47° NW 03:13:28 10° N visible
25 Mar ? 00:21:25 18° ENE 00:21:25 18° ENE 00:25:13 10° NE visible
25 Mar ? 02:17:19 58° N 02:17:19 58° N 02:24:02 10° N visible
25 Mar ? 04:13:13 20° WNW 04:13:20 20° WNW 04:19:20 10° NNW visible
26 Mar ? 01:28:07 44° NE 01:28:07 44° NE 01:34:15 10° NNE visible
26 Mar ? 03:24:01 34° NW 03:24:01 34° NW 03:30:48 10° N visible
27 Mar ? 00:38:53 27° ENE 00:38:53 27° ENE 00:43:58 10° NNE visible
27 Mar ? 02:34:47 52° NNW 02:34:47 52° NNW 02:41:38 10° N visible
27 Mar ? 04:30:41 12° WNW 04:31:53 12° NW 04:35:11 10° NNW visible
27 Mar ? 23:49:40 15° ENE 23:49:40 15° ENE 23:52:33 10° NE visible
28 Mar ? 01:45:34 55° NNE 01:45:34 55° NNE 01:52:07 10° N visible
28 Mar ? 03:41:27 23° WNW 03:41:27 23° WNW 03:47:50 10° NNW visible
29 Mar ? 00:56:19 38° NE 00:56:19 38° NE 01:02:12 10° NNE visible
29 Mar ? 02:52:13 39° NW 02:52:13 39° NW 02:59:04 10° N visible
30 Mar ? 00:07:04 23° ENE 00:07:04 23° ENE 00:11:42 10° NNE visible
30 Mar ? 02:02:58 56° NNW 02:02:58 56° NNW 02:09:47 10° N visible
30 Mar ? 03:58:52 15° WNW 03:59:34 15° WNW 04:04:17 10° NNW visible
30 Mar ? 23:17:49 12° ENE 23:17:49 12° ENE 23:19:26 10° NE visible
31 Mar ? 01:13:42 51° NE 01:13:42 51° NE 01:20:09 10° NNE visible
31 Mar ? 03:09:36 27° WNW 03:09:36 27° WNW 03:16:15 10° N visible
01 Apr ? 00:24:26 34° ENE 00:24:26 34° ENE 00:30:06 10° NNE visible
01 Apr ? 02:20:20 45° NW 02:20:20 45° NW 02:27:17 10° N visible
01 Apr ? 23:35:09 19° ENE 23:35:09 19° ENE 23:39:19 10° NE visible
